BOX502 EDDP-VHHH

Flight info

Callsign BOX502
Flight time N/A
Altitude 29000
Route EDDP/08R DRN Z21 OMELO DCT EVIKU DCT OMIFU DCT SAGAN DCT ETNOG DCT DINRO DCT UDROS UN743 GAKSU UT310 SIN UN644 KARDE/N0485F310 UL851 TBN UG261 NOLGA DCT BARAD M747 SUBUT T923 ERLEV L850 BAKUV N701 LARGI B701 KRS A240 INRAK B449 RANAH L750 DUDEG/N0490F330 L750 MERUN G452 LKN A201 LSO A599 LINSO/K0913S1010 A599 GULOT/K0906S1070 A599 POU R473 SIERA
Aircraft B77L/H-SDE1E2E3FGHIJ2J3J4J5M1RWXY/LB1D1

Departure

Time 2026-05-05 21:32
Airport Leipzig/Halle Airport (EDDP)

Arrival

Time N/A
Airport Hong Kong International Airport (VHHH)
Time Latitude Longitude Altitude Speed Heading
2026-05-05 20:24 51.40826 12.23099 470 ft 0 kts 265°
2026-05-05 21:14 51.40828 12.23133 472 ft 4 kts 265°
2026-05-05 21:14 51.40830 12.23167 468 ft 4 kts 268°
2026-05-05 21:14 51.40824 12.23199 467 ft 4 kts 339°
2026-05-05 21:14 51.40800 12.23205 467 ft 4 kts 355°
2026-05-05 21:15 51.40786 12.23207 466 ft 2 kts 355°
2026-05-05 21:20 51.40788 12.23207 466 ft 1 kts 355°
2026-05-05 21:20 51.40801 12.23205 468 ft 4 kts 355°
2026-05-05 21:21 51.40838 12.23200 468 ft 5 kts 356°
2026-05-05 21:21 51.40876 12.23196 471 ft 5 kts 356°
2026-05-05 21:21 51.40913 12.23191 473 ft 5 kts 356°
2026-05-05 21:21 51.40951 12.23187 475 ft 5 kts 356°
2026-05-05 21:22 51.40988 12.23183 475 ft 5 kts 356°
2026-05-05 21:22 51.41018 12.23155 474 ft 5 kts 295°
2026-05-05 21:22 51.41026 12.23095 477 ft 5 kts 276°
2026-05-05 21:22 51.41025 12.23033 474 ft 7 kts 264°
2026-05-05 21:23 51.41017 12.22919 477 ft 12 kts 265°
2026-05-05 21:23 51.41010 12.22785 477 ft 12 kts 265°
2026-05-05 21:23 51.41005 12.22676 471 ft 9 kts 267°
2026-05-05 21:23 51.41001 12.22572 468 ft 9 kts 266°
2026-05-05 21:24 51.40996 12.22467 468 ft 9 kts 265°
2026-05-05 21:24 51.40990 12.22363 472 ft 9 kts 265°
2026-05-05 21:24 51.40995 12.22314 468 ft 2 kts 306°
2026-05-05 21:24 51.41019 12.22304 468 ft 5 kts
2026-05-05 21:25 51.41063 12.22285 466 ft 5 kts 309°
2026-05-05 21:25 51.41071 12.22200 468 ft 11 kts 265°
2026-05-05 21:25 51.41063 12.22052 471 ft 12 kts 265°
2026-05-05 21:25 51.41058 12.21937 472 ft 10 kts 266°
2026-05-05 21:26 51.41053 12.21827 473 ft 10 kts 266°
2026-05-05 21:26 51.41048 12.21717 470 ft 10 kts 266°
2026-05-05 21:26 51.41043 12.21608 467 ft 10 kts 266°
2026-05-05 21:26 51.41038 12.21498 466 ft 10 kts 266°
2026-05-05 21:27 51.41033 12.21388 464 ft 10 kts 266°
2026-05-05 21:27 51.41028 12.21278 462 ft 10 kts 266°
2026-05-05 21:27 51.41023 12.21168 458 ft 10 kts 266°
2026-05-05 21:27 51.41018 12.21059 453 ft 10 kts 266°
2026-05-05 21:28 51.41013 12.20949 449 ft 10 kts 266°
2026-05-05 21:28 51.41008 12.20839 447 ft 10 kts 266°
2026-05-05 21:28 51.41004 12.20763 447 ft 0 kts 265°
2026-05-05 21:28 51.41003 12.20745 446 ft 5 kts 265°
2026-05-05 21:29 51.41001 12.20694 431 ft 5 kts 265°
2026-05-05 21:29 51.40998 12.20643 434 ft 5 kts 265°
2026-05-05 21:29 51.40994 12.20560 436 ft 2 kts 266°
2026-05-05 21:29 51.40999 12.20504 435 ft 9 kts 300°
2026-05-05 21:30 51.41047 12.20485 426 ft 8 kts 12°
2026-05-05 21:30 51.41098 12.20503 432 ft 8 kts 13°
2026-05-05 21:30 51.41145 12.20525 438 ft 4 kts 29°
2026-05-05 21:30 51.41161 12.20570 433 ft 10 kts 72°
2026-05-05 21:31 51.41183 12.20911 452 ft 63 kts 86°
2026-05-05 21:31 51.41233 12.21989 467 ft 130 kts 85°
2026-05-05 21:31 51.41316 12.23781 475 ft 191 kts 86°
2026-05-05 21:31 51.41411 12.26040 854 ft 203 kts 86°
2026-05-05 21:32 51.41508 12.28281 1682 ft 202 kts 84°
2026-05-05 21:32 51.41599 12.30480 2409 ft 197 kts 85°
2026-05-05 21:32 51.41701 12.32750 2609 ft 215 kts 85°
2026-05-05 21:32 51.41819 12.35203 2854 ft 230 kts 85°
2026-05-05 21:33 51.41930 12.37843 3164 ft 242 kts 86°
2026-05-05 21:33 51.42043 12.40607 3686 ft 248 kts 86°
2026-05-05 21:33 51.42171 12.43364 4269 ft 252 kts 86°
2026-05-05 21:33 51.42311 12.46215 4722 ft 260 kts 86°
2026-05-05 21:34 51.42450 12.49082 5251 ft 264 kts 86°
2026-05-05 21:34 51.42595 12.52047 5778 ft 268 kts 86°
2026-05-05 21:34 51.42727 12.55016 6410 ft 264 kts 91°
2026-05-05 21:34 51.42379 12.57894 6765 ft 266 kts 120°
2026-05-05 21:35 51.41419 12.60398 7267 ft 266 kts 124°
2026-05-05 21:35 51.40387 12.62930 7613 ft 277 kts 124°
2026-05-05 21:35 51.39329 12.65566 8033 ft 284 kts 123°
2026-05-05 21:35 51.38260 12.68219 8699 ft 283 kts 124°
2026-05-05 21:36 51.37204 12.70871 9382 ft 281 kts 123°
2026-05-05 21:36 51.36146 12.73512 9934 ft 283 kts 124°
2026-05-05 21:36 51.35055 12.76230 10174 ft 299 kts 124°
2026-05-05 21:36 51.33899 12.79119 10310 ft 318 kts 124°
2026-05-05 21:37 51.32675 12.82179 10456 ft 336 kts 124°
2026-05-05 21:37 51.31384 12.85409 10611 ft 353 kts 124°
2026-05-05 21:37 51.30041 12.88769 11008 ft 363 kts 124°
2026-05-05 21:37 51.28674 12.92194 11497 ft 370 kts 124°
2026-05-05 21:38 51.27279 12.95686 12118 ft 373 kts 124°
2026-05-05 21:38 51.25878 12.99185 12757 ft 376 kts 124°
2026-05-05 21:38 51.24460 13.02720 13346 ft 380 kts 124°
2026-05-05 21:38 51.23024 13.06296 13881 ft 384 kts 124°
2026-05-05 21:39 51.21581 13.09886 14442 ft 387 kts 124°
2026-05-05 21:39 51.20124 13.13505 15005 ft 389 kts 124°
2026-05-05 21:39 51.18656 13.17145 15546 ft 392 kts 124°
2026-05-05 21:39 51.17170 13.20820 16071 ft 395 kts 125°
2026-05-05 21:40 51.15684 13.24530 16577 ft 399 kts 124°
2026-05-05 21:40 51.14196 13.28283 17105 ft 402 kts 124°
2026-05-05 21:40 51.12700 13.32062 17657 ft 405 kts 124°
2026-05-05 21:40 51.11197 13.35855 18163 ft 408 kts 124°
2026-05-05 21:41 51.09673 13.39693 18587 ft 411 kts 124°
2026-05-05 21:41 51.08139 13.43545 19044 ft 413 kts 125°
2026-05-05 21:41 51.06618 13.47358 19482 ft 416 kts 125°
2026-05-05 21:41 51.05061 13.51256 19915 ft 419 kts 125°
2026-05-05 21:42 51.03490 13.55182 20335 ft 422 kts 125°
2026-05-05 21:42 51.01907 13.59130 20765 ft 425 kts 125°
2026-05-05 21:42 51.00310 13.63113 21220 ft 427 kts 125°
2026-05-05 21:42 50.98715 13.67098 21738 ft 428 kts 125°
2026-05-05 21:43 50.97115 13.71098 22176 ft 431 kts 125°